Time,TemperatureF,DewpointF,PressureIn,WindDirection,WindDirectionDegrees,WindSpeedMPH,WindSpeedGustMPH,Humidity,HourlyPrecipIn,Conditions,Clouds,dailyrainin,SoftwareType,DateUTC
2013-11-26 00:00:00,55.4,51.9,30.00,SE,126,0.0,13.0,88,0.00,,,0.00,WeatherTracker,2013-11-26 06:00:00,
2013-11-26 00:10:00,55.4,52.2,30.00,SE,138,0.0,6.0,89,0.00,,,0.00,WeatherTracker,2013-11-26 06:10:00,
2013-11-26 00:15:00,55.4,52.5,30.00,SSE,148,0.0,7.0,90,0.00,,,0.00,WeatherTracker,2013-11-26 06:15:00,
2013-11-26 00:25:00,55.3,52.7,29.98,SE,132,5.0,12.0,91,0.00,,,0.00,WeatherTracker,2013-11-26 06:25:00,
2013-11-26 00:30:00,55.3,52.7,29.97,SSE,162,0.0,11.0,91,0.00,,,0.00,WeatherTracker,2013-11-26 06:30:00,
2013-11-26 00:35:00,55.3,53.0,29.98,ENE,77,0.0,12.0,92,0.00,,,0.00,WeatherTracker,2013-11-26 06:35:00,
2013-11-26 00:45:00,55.4,53.1,29.98,SE,143,0.0,13.0,92,0.00,,,0.00,WeatherTracker,2013-11-26 06:45:00,
2013-11-26 00:50:00,55.4,53.4,29.98,South,189,6.0,13.0,93,0.00,,,0.00,WeatherTracker,2013-11-26 06:50:00,
2013-11-26 00:55:00,55.4,53.4,29.97,South,179,0.0,10.0,93,0.00,,,0.00,WeatherTracker,2013-11-26 06:55:00,
2013-11-26 01:00:00,55.3,53.3,29.97,ESE,103,7.0,10.0,93,0.00,,,0.00,WeatherTracker,2013-11-26 07:00:00,
2013-11-26 01:05:00,55.3,53.3,29.96,ESE,117,0.0,13.0,93,0.00,,,0.00,WeatherTracker,2013-11-26 07:05:00,
2013-11-26 01:10:00,55.3,53.3,29.96,SE,144,7.0,13.0,93,0.00,,,0.00,WeatherTracker,2013-11-26 07:10:00,
2013-11-26 01:20:00,55.1,53.4,29.94,South,170,1.0,15.0,94,0.00,,,0.00,WeatherTracker,2013-11-26 07:20:00,
2013-11-26 01:30:00,55.1,53.4,29.93,SE,136,6.0,14.0,94,0.00,,,0.00,WeatherTracker,2013-11-26 07:30:00,
2013-11-26 01:40:00,55.2,53.5,29.91,SE,125,4.0,11.0,94,0.00,,,0.00,WeatherTracker,2013-11-26 07:40:00,
2013-11-26 01:50:00,55.2,53.5,29.91,ESE,115,0.0,18.0,94,0.00,,,0.00,WeatherTracker,2013-11-26 07:50:00,
2013-11-26 02:00:00,55.3,53.9,29.91,South,170,0.0,12.0,95,0.00,,,0.00,WeatherTracker,2013-11-26 08:00:00,
2013-11-26 02:05:00,55.3,53.9,29.91,SSE,168,0.0,12.0,95,0.00,,,0.00,WeatherTracker,2013-11-26 08:05:00,
2013-11-26 02:15:00,55.6,54.2,29.91,SE,146,0.0,14.0,95,0.00,,,0.00,WeatherTracker,2013-11-26 08:15:00,
2013-11-26 02:25:00,55.8,54.4,29.91,SSE,153,2.0,18.0,95,0.00,,,0.00,WeatherTracker,2013-11-26 08:25:00,
2013-11-26 02:35:00,56.0,54.6,29.91,South,171,1.0,14.0,95,0.00,,,0.00,WeatherTracker,2013-11-26 08:35:00,
2013-11-26 02:45:00,56.2,54.8,29.90,South,169,5.0,13.0,95,0.00,,,0.00,WeatherTracker,2013-11-26 08:45:00,
2013-11-26 02:50:00,56.4,55.0,29.89,South,182,13.0,18.0,95,0.00,,,0.00,WeatherTracker,2013-11-26 08:50:00,
2013-11-26 02:55:00,56.6,55.5,29.88,South,169,5.0,18.0,96,0.00,,,0.00,WeatherTracker,2013-11-26 08:55:00,
2013-11-26 03:05:00,56.7,55.6,29.87,SSE,154,8.0,16.0,96,0.00,,,0.00,WeatherTracker,2013-11-26 09:05:00,
2013-11-26 03:10:00,56.8,55.7,29.87,SSE,163,0.0,16.0,96,0.00,,,0.00,WeatherTracker,2013-11-26 09:10:00,
2013-11-26 03:15:00,56.8,55.7,29.87,South,182,1.0,17.0,96,0.00,,,0.00,WeatherTracker,2013-11-26 09:15:00,
2013-11-26 03:25:00,56.9,55.8,29.86,ENE,77,3.0,12.0,96,0.00,,,0.00,WeatherTracker,2013-11-26 09:25:00,
2013-11-26 03:30:00,57.0,55.9,29.85,SE,146,0.0,17.0,96,0.00,,,0.00,WeatherTracker,2013-11-26 09:30:00,
2013-11-26 03:35:00,57.1,56.0,29.85,SE,139,2.0,17.0,96,0.00,,,0.00,WeatherTracker,2013-11-26 09:35:00,
2013-11-26 03:40:00,57.2,56.1,29.85,SE,138,15.0,15.0,96,0.00,,,0.00,WeatherTracker,2013-11-26 09:40:00,
2013-11-26 03:45:00,57.3,56.2,29.85,SSW,196,12.0,18.0,96,0.00,,,0.00,WeatherTracker,2013-11-26 09:45:00,
2013-11-26 03:50:00,57.4,56.3,29.84,SSE,157,8.0,20.0,96,0.00,,,0.00,WeatherTracker,2013-11-26 09:50:00,
2013-11-26 03:55:00,57.5,56.4,29.83,SSE,167,0.0,20.0,96,0.00,,,0.00,WeatherTracker,2013-11-26 09:55:00,
2013-11-26 04:05:00,57.7,56.6,29.83,South,169,0.0,19.0,96,0.00,,,0.00,WeatherTracker,2013-11-26 10:05:00,
2013-11-26 04:10:00,57.8,56.7,29.82,South,173,0.0,19.0,96,0.00,,,0.00,WeatherTracker,2013-11-26 10:10:00,
2013-11-26 04:15:00,57.9,56.8,29.83,SSE,161,2.0,17.0,96,0.00,,,0.00,WeatherTracker,2013-11-26 10:15:00,
2013-11-26 04:20:00,57.9,56.8,29.83,SE,138,0.0,14.0,96,0.00,,,0.00,WeatherTracker,2013-11-26 10:20:00,
2013-11-26 04:25:00,58.0,56.9,29.82,SSW,197,4.0,16.0,96,0.00,,,0.00,WeatherTracker,2013-11-26 10:25:00,
2013-11-26 04:30:00,58.1,57.0,29.82,SE,138,6.0,18.0,96,0.00,,,0.00,WeatherTracker,2013-11-26 10:30:00,
2013-11-26 04:40:00,58.3,57.2,29.79,SSE,161,0.0,22.0,96,0.00,,,0.00,WeatherTracker,2013-11-26 10:40:00,
2013-11-26 04:45:00,58.4,57.3,29.81,South,184,6.0,18.0,96,0.00,,,0.00,WeatherTracker,2013-11-26 10:45:00,
2013-11-26 04:55:00,58.5,57.4,29.80,ESE,123,0.0,9.0,96,0.00,,,0.00,WeatherTracker,2013-11-26 10:55:00,
2013-11-26 05:00:00,58.5,57.4,29.80,ESE,114,1.0,10.0,96,0.00,,,0.00,WeatherTracker,2013-11-26 11:00:00,
2013-11-26 05:05:00,58.7,57.6,29.79,South,175,0.0,17.0,96,0.00,,,0.00,WeatherTracker,2013-11-26 11:05:00,
2013-11-26 05:15:00,59.0,57.9,29.80,SSW,196,0.0,11.0,96,0.00,,,0.00,WeatherTracker,2013-11-26 11:15:00,
2013-11-26 05:20:00,59.2,58.1,29.80,ESE,122,0.0,8.0,96,0.00,,,0.00,WeatherTracker,2013-11-26 11:20:00,
2013-11-26 05:25:00,59.6,58.7,29.80,South,184,0.0,16.0,97,0.00,,,0.00,WeatherTracker,2013-11-26 11:25:00,
2013-11-26 05:30:00,59.8,58.9,29.80,South,173,14.0,16.0,97,0.00,,,0.00,WeatherTracker,2013-11-26 11:30:00,
2013-11-26 05:40:00,60.4,59.5,29.80,SE,140,12.0,15.0,97,0.00,,,0.00,WeatherTracker,2013-11-26 11:40:00,
2013-11-26 05:45:00,60.5,59.6,29.80,SE,132,2.0,15.0,97,0.00,,,0.00,WeatherTracker,2013-11-26 11:45:00,
2013-11-26 05:50:00,60.6,59.7,29.80,South,184,1.0,15.0,97,0.00,,,0.00,WeatherTracker,2013-11-26 11:50:00,
2013-11-26 06:00:00,60.8,59.9,29.80,South,185,10.0,16.0,97,0.00,,,0.00,WeatherTracker,2013-11-26 12:00:00,
2013-11-26 06:05:00,60.9,60.0,29.80,SSE,153,10.0,16.0,97,0.00,,,0.00,WeatherTracker,2013-11-26 12:05:00,
2013-11-26 06:10:00,61.0,60.1,29.80,SSE,168,9.0,14.0,97,0.00,,,0.00,WeatherTracker,2013-11-26 12:10:00,
2013-11-26 06:15:00,61.1,60.2,29.79,SSE,147,5.0,16.0,97,0.00,,,0.00,WeatherTracker,2013-11-26 12:15:00,
2013-11-26 06:25:00,61.3,60.4,29.79,SE,136,1.0,16.0,97,0.00,,,0.00,WeatherTracker,2013-11-26 12:25:00,
2013-11-26 06:35:00,61.4,60.5,29.78,SSE,165,5.0,14.0,97,0.00,,,0.00,WeatherTracker,2013-11-26 12:35:00,
2013-11-26 06:40:00,61.4,60.5,29.76,South,182,10.0,20.0,97,0.00,,,0.00,WeatherTracker,2013-11-26 12:40:00,
2013-11-26 06:45:00,61.4,60.5,29.77,South,171,0.0,20.0,97,0.00,,,0.00,WeatherTracker,2013-11-26 12:45:00,
2013-11-26 06:55:00,61.5,60.6,29.78,South,169,7.0,21.0,97,0.00,,,0.00,WeatherTracker,2013-11-26 12:55:00,
2013-11-26 07:05:00,61.6,60.7,29.77,SSW,199,4.0,15.0,97,0.00,,,0.00,WeatherTracker,2013-11-26 13:05:00,
2013-11-26 07:10:00,61.6,60.7,29.77,ESE,102,0.0,15.0,97,0.00,,,0.00,WeatherTracker,2013-11-26 13:10:00,
2013-11-26 07:15:00,61.6,60.7,29.76,SE,145,0.0,15.0,97,0.00,,,0.00,WeatherTracker,2013-11-26 13:15:00,
2013-11-26 07:20:00,61.6,60.7,29.76,SSE,165,0.0,12.0,97,0.00,,,0.00,WeatherTracker,2013-11-26 13:20:00,
2013-11-26 07:30:00,61.6,60.7,29.75,SSE,167,2.0,15.0,97,0.00,,,0.00,WeatherTracker,2013-11-26 13:30:00,
2013-11-26 07:35:00,61.7,60.8,29.76,SE,128,0.0,14.0,97,0.00,,,0.00,WeatherTracker,2013-11-26 13:35:00,
2013-11-26 07:45:00,61.8,60.9,29.75,SSE,153,1.0,16.0,97,0.00,,,0.00,WeatherTracker,2013-11-26 13:45:00,
2013-11-26 07:50:00,61.8,60.9,29.76,ESE,118,0.0,16.0,97,0.00,,,0.00,WeatherTracker,2013-11-26 13:50:00,
2013-11-26 08:00:00,61.9,61.0,29.75,SE,132,1.0,11.0,97,0.00,,,0.00,WeatherTracker,2013-11-26 14:00:00,
2013-11-26 08:05:00,61.9,61.0,29.75,ENE,65,0.0,11.0,97,0.00,,,0.00,WeatherTracker,2013-11-26 14:05:00,
2013-11-26 08:10:00,61.9,61.0,29.74,SE,127,4.0,8.0,97,0.00,,,0.00,WeatherTracker,2013-11-26 14:10:00,
2013-11-26 08:20:00,62.0,61.1,29.73,SSE,157,5.0,9.0,97,0.00,,,0.00,WeatherTracker,2013-11-26 14:20:00,
2013-11-26 08:30:00,62.3,61.4,29.72,SSE,148,0.0,15.0,97,0.00,,,0.00,WeatherTracker,2013-11-26 14:30:00,
2013-11-26 08:35:00,62.4,61.5,29.73,SSE,165,7.0,12.0,97,0.00,,,0.00,WeatherTracker,2013-11-26 14:35:00,
2013-11-26 08:45:00,62.8,61.9,29.73,SE,134,5.0,16.0,97,0.00,,,0.00,WeatherTracker,2013-11-26 14:45:00,
2013-11-26 08:50:00,63.0,62.1,29.73,SSE,155,6.0,16.0,97,0.00,,,0.00,WeatherTracker,2013-11-26 14:50:00,
2013-11-26 08:55:00,63.1,62.2,29.73,South,177,0.0,16.0,97,0.00,,,0.00,WeatherTracker,2013-11-26 14:55:00,
2013-11-26 09:05:00,63.4,62.5,29.72,East,99,4.0,19.0,97,0.00,,,0.00,WeatherTracker,2013-11-26 15:05:00,
2013-11-26 09:10:00,63.6,62.7,29.72,SE,138,4.0,19.0,97,0.00,,,0.00,WeatherTracker,2013-11-26 15:10:00,
2013-11-26 09:15:00,63.7,62.8,29.72,SSE,147,12.0,19.0,97,0.00,,,0.00,WeatherTracker,2013-11-26 15:15:00,
2013-11-26 09:20:00,63.7,62.8,29.72,SE,133,0.0,19.0,97,0.00,,,0.00,WeatherTracker,2013-11-26 15:20:00,
2013-11-26 09:25:00,63.7,62.8,29.72,South,180,1.0,17.0,97,0.00,,,0.00,WeatherTracker,2013-11-26 15:25:00,
2013-11-26 09:30:00,63.8,62.9,29.70,East,95,2.0,17.0,97,0.00,,,0.00,WeatherTracker,2013-11-26 15:30:00,
2013-11-26 09:35:00,63.8,62.9,29.70,SSE,166,6.0,14.0,97,0.00,,,0.00,WeatherTracker,2013-11-26 15:35:00,
2013-11-26 09:45:00,63.9,63.0,29.70,South,174,12.0,15.0,97,0.00,,,0.00,WeatherTracker,2013-11-26 15:45:00,
2013-11-26 09:55:00,64.1,63.2,29.69,South,173,4.0,18.0,97,0.00,,,0.00,WeatherTracker,2013-11-26 15:55:00,
2013-11-26 10:00:00,64.2,63.3,29.69,South,174,4.0,18.0,97,0.00,,,0.00,WeatherTracker,2013-11-26 16:00:00,
2013-11-26 10:05:00,64.3,63.4,29.69,SSE,161,0.0,16.0,97,0.00,,,0.00,WeatherTracker,2013-11-26 16:05:00,
2013-11-26 10:15:00,64.5,63.6,29.70,SSE,167,0.0,15.0,97,0.00,,,0.00,WeatherTracker,2013-11-26 16:15:00,
2013-11-26 10:20:00,64.6,63.7,29.70,SSW,194,0.0,14.0,97,0.00,,,0.00,WeatherTracker,2013-11-26 16:20:00,
2013-11-26 10:30:00,64.7,63.8,29.69,SE,141,6.0,12.0,97,0.00,,,0.00,WeatherTracker,2013-11-26 16:30:00,
2013-11-26 10:35:00,64.8,63.9,29.69,South,185,0.0,13.0,97,0.01,,,0.01,WeatherTracker,2013-11-26 16:35:00,
2013-11-26 10:45:00,65.0,64.1,29.68,South,176,0.0,13.0,97,0.01,,,0.01,WeatherTracker,2013-11-26 16:45:00,
2013-11-26 10:50:00,65.0,64.1,29.68,South,188,0.0,11.0,97,0.01,,,0.01,WeatherTracker,2013-11-26 16:50:00,
2013-11-26 10:55:00,65.1,64.2,29.67,South,172,0.0,10.0,97,0.01,,,0.01,WeatherTracker,2013-11-26 16:55:00,
2013-11-26 11:00:00,65.2,64.3,29.67,SE,143,0.0,7.0,97,0.01,,,0.01,WeatherTracker,2013-11-26 17:00:00,
2013-11-26 11:05:00,65.3,64.4,29.66,SSE,158,4.0,13.0,97,0.01,,,0.01,WeatherTracker,2013-11-26 17:05:00,
2013-11-26 11:15:00,65.5,64.6,29.66,SSE,150,0.0,13.0,97,0.01,,,0.01,WeatherTracker,2013-11-26 17:15:00,
2013-11-26 11:25:00,65.6,64.7,29.65,SE,134,0.0,8.0,97,0.01,,,0.01,WeatherTracker,2013-11-26 17:25:00,
2013-11-26 11:30:00,65.8,64.9,29.65,South,169,0.0,12.0,97,0.01,,,0.01,WeatherTracker,2013-11-26 17:30:00,
2013-11-26 11:40:00,66.2,65.3,29.64,SSE,161,6.0,12.0,97,0.00,,,0.01,WeatherTracker,2013-11-26 17:40:00,
2013-11-26 11:45:00,66.4,65.5,29.64,South,174,0.0,11.0,97,0.00,,,0.01,WeatherTracker,2013-11-26 17:45:00,
2013-11-26 11:55:00,66.6,65.7,29.64,South,188,0.0,7.0,97,0.00,,,0.01,WeatherTracker,2013-11-26 17:55:00,
2013-11-26 12:00:00,66.8,65.9,29.64,South,188,0.0,4.0,97,0.00,,,0.01,WeatherTracker,2013-11-26 18:00:00,
2013-11-26 12:10:00,68.2,67.3,29.64,SSW,193,0.0,2.0,97,0.00,,,0.01,WeatherTracker,2013-11-26 18:10:00,
2013-11-26 12:15:00,67.9,67.0,29.64,WSW,243,0.0,7.0,97,0.00,,,0.01,WeatherTracker,2013-11-26 18:15:00,
2013-11-26 12:20:00,67.6,66.7,29.63,WSW,256,0.0,7.0,97,0.00,,,0.01,WeatherTracker,2013-11-26 18:20:00,
2013-11-26 12:30:00,67.5,66.6,29.63,WNW,295,0.0,1.0,97,0.00,,,0.01,WeatherTracker,2013-11-26 18:30:00,
2013-11-26 12:35:00,66.5,65.6,29.64,North,355,6.0,12.0,97,0.00,,,0.01,WeatherTracker,2013-11-26 18:35:00,
2013-11-26 12:40:00,62.2,60.4,29.64,NNE,15,4.0,15.0,94,0.00,,,0.01,WeatherTracker,2013-11-26 18:40:00,
2013-11-26 12:45:00,60.1,58.7,29.65,North,355,0.0,15.0,95,0.00,,,0.01,WeatherTracker,2013-11-26 18:45:00,
2013-11-26 12:50:00,58.7,57.0,29.65,NNW,344,2.0,10.0,94,0.00,,,0.01,WeatherTracker,2013-11-26 18:50:00,
2013-11-26 13:00:00,57.0,55.3,29.66,NNW,344,1.0,14.0,94,0.00,,,0.01,WeatherTracker,2013-11-26 19:00:00,
2013-11-26 13:10:00,55.7,54.0,29.65,North,350,9.0,11.0,94,0.00,,,0.01,WeatherTracker,2013-11-26 19:10:00,
2013-11-26 13:15:00,55.2,53.5,29.66,NNW,336,3.0,11.0,94,0.00,,,0.01,WeatherTracker,2013-11-26 19:15:00,
2013-11-26 13:20:00,54.7,53.0,29.66,NNW,340,1.0,13.0,94,0.00,,,0.01,WeatherTracker,2013-11-26 19:20:00,
2013-11-26 13:25:00,54.1,52.4,29.65,North,360,5.0,13.0,94,0.00,,,0.01,WeatherTracker,2013-11-26 19:25:00,
2013-11-26 13:30:00,53.4,51.7,29.65,NNE,32,8.0,10.0,94,0.00,,,0.01,WeatherTracker,2013-11-26 19:30:00,
2013-11-26 13:40:00,52.2,50.5,29.67,NNW,336,4.0,11.0,94,0.00,,,0.01,WeatherTracker,2013-11-26 19:40:00,
2013-11-26 13:50:00,50.8,49.1,29.67,NNW,335,8.0,12.0,94,0.00,,,0.01,WeatherTracker,2013-11-26 19:50:00,
2013-11-26 13:55:00,50.3,48.6,29.67,NNE,12,6.0,11.0,94,0.00,,,0.01,WeatherTracker,2013-11-26 19:55:00,
2013-11-26 14:05:00,49.0,47.3,29.66,NNE,16,3.0,13.0,94,0.00,,,0.01,WeatherTracker,2013-11-26 20:05:00,
2013-11-26 14:10:00,48.6,47.0,29.68,NNW,345,8.0,13.0,94,0.00,,,0.01,WeatherTracker,2013-11-26 20:10:00,
2013-11-26 14:15:00,48.4,46.8,29.68,North,360,4.0,11.0,94,0.00,,,0.01,WeatherTracker,2013-11-26 20:15:00,
2013-11-26 14:25:00,47.9,46.5,29.67,North,355,1.0,9.0,95,0.00,,,0.01,WeatherTracker,2013-11-26 20:25:00,
2013-11-26 14:35:00,47.6,46.2,29.68,North,350,0.0,10.0,95,0.00,,,0.01,WeatherTracker,2013-11-26 20:35:00,
2013-11-26 14:45:00,47.3,45.9,29.67,NNW,336,5.0,9.0,95,0.00,,,0.01,WeatherTracker,2013-11-26 20:45:00,
2013-11-26 14:55:00,47.1,45.7,29.68,NNE,13,5.0,9.0,95,0.00,,,0.01,WeatherTracker,2013-11-26 20:55:00,
2013-11-26 15:00:00,47.0,45.6,29.67,NNW,345,3.0,10.0,95,0.00,,,0.01,WeatherTracker,2013-11-26 21:00:00,
2013-11-26 15:05:00,46.8,45.4,29.68,North,350,0.0,10.0,95,0.00,,,0.01,WeatherTracker,2013-11-26 21:05:00,
2013-11-26 15:15:00,46.5,45.1,29.68,NNW,346,0.0,10.0,95,0.00,,,0.01,WeatherTracker,2013-11-26 21:15:00,
2013-11-26 15:25:00,46.5,45.4,29.69,NNW,348,0.0,5.0,96,0.00,,,0.01,WeatherTracker,2013-11-26 21:25:00,
2013-11-26 15:35:00,46.4,45.3,29.69,NNW,346,0.0,7.0,96,0.00,,,0.01,WeatherTracker,2013-11-26 21:35:00,
2013-11-26 15:40:00,46.4,45.3,29.68,North,355,0.0,7.0,96,0.00,,,0.01,WeatherTracker,2013-11-26 21:40:00,
2013-11-26 15:50:00,46.4,45.3,29.68,North,5,0.0,9.0,96,0.00,,,0.01,WeatherTracker,2013-11-26 21:50:00,
2013-11-26 16:00:00,46.4,45.3,29.68,North,5,0.0,6.0,96,0.00,,,0.01,WeatherTracker,2013-11-26 22:00:00,
2013-11-26 16:05:00,46.4,45.3,29.67,NNW,348,0.0,5.0,96,0.00,,,0.01,WeatherTracker,2013-11-26 22:05:00,
2013-11-26 16:10:00,46.4,45.3,29.69,North,350,0.0,5.0,96,0.00,,,0.01,WeatherTracker,2013-11-26 22:10:00,
2013-11-26 16:15:00,46.3,45.2,29.71,NNW,331,0.0,6.0,96,0.00,,,0.01,WeatherTracker,2013-11-26 22:15:00,
2013-11-26 16:20:00,46.3,45.2,29.70,NNW,346,5.0,6.0,96,0.00,,,0.01,WeatherTracker,2013-11-26 22:20:00,
2013-11-26 16:25:00,46.2,45.1,29.71,NNW,339,0.0,7.0,96,0.00,,,0.01,WeatherTracker,2013-11-26 22:25:00,
2013-11-26 16:35:00,46.1,45.0,29.72,North,355,0.0,7.0,96,0.00,,,0.01,WeatherTracker,2013-11-26 22:35:00,
2013-11-26 16:40:00,46.1,45.0,29.71,North,350,0.0,5.0,96,0.00,,,0.01,WeatherTracker,2013-11-26 22:40:00,
2013-11-26 16:50:00,46.1,45.0,29.72,North,355,0.0,8.0,96,0.00,,,0.01,WeatherTracker,2013-11-26 22:50:00,
2013-11-26 17:00:00,46.0,44.9,29.74,NNW,338,3.0,11.0,96,0.00,,,0.01,WeatherTracker,2013-11-26 23:00:00,
2013-11-26 17:10:00,46.0,44.9,29.74,North,9,0.0,9.0,96,0.00,,,0.01,WeatherTracker,2013-11-26 23:10:00,
2013-11-26 17:20:00,46.0,44.9,29.73,NNW,347,0.0,8.0,96,0.00,,,0.01,WeatherTracker,2013-11-26 23:20:00,
2013-11-26 17:30:00,46.1,45.0,29.72,NNW,348,0.0,9.0,96,0.00,,,0.01,WeatherTracker,2013-11-26 23:30:00,
2013-11-26 17:40:00,46.2,45.1,29.73,North,5,3.0,7.0,96,0.00,,,0.01,WeatherTracker,2013-11-26 23:40:00,
2013-11-26 17:45:00,46.3,45.2,29.73,NNW,348,7.0,7.0,96,0.00,,,0.01,WeatherTracker,2013-11-26 23:45:00,
2013-11-26 17:50:00,46.4,45.3,29.74,NNW,337,0.0,7.0,96,0.00,,,0.01,WeatherTracker,2013-11-26 23:50:00,
2013-11-26 18:00:00,46.5,45.7,29.74,NNW,330,0.0,6.0,97,0.00,,,0.01,WeatherTracker,2013-11-27 00:00:00,
2013-11-26 18:10:00,46.6,45.8,29.74,North,351,0.0,6.0,97,0.00,,,0.01,WeatherTracker,2013-11-27 00:10:00,
2013-11-26 18:20:00,46.8,46.0,29.74,North,11,0.0,4.0,97,0.00,,,0.01,WeatherTracker,2013-11-27 00:20:00,
2013-11-26 18:25:00,46.8,46.0,29.75,North,355,0.0,4.0,97,0.00,,,0.01,WeatherTracker,2013-11-27 00:25:00,
2013-11-26 18:30:00,46.9,46.1,29.75,North,355,0.0,0.0,97,0.00,,,0.01,WeatherTracker,2013-11-27 00:30:00,
2013-11-26 18:40:00,47.0,46.2,29.74,North,5,0.0,0.0,97,0.00,,,0.01,WeatherTracker,2013-11-27 00:40:00,
2013-11-26 18:50:00,47.1,46.3,29.74,North,5,0.0,0.0,97,0.00,,,0.01,WeatherTracker,2013-11-27 00:50:00,
2013-11-26 18:55:00,47.2,46.4,29.73,North,350,0.0,2.0,97,0.00,,,0.01,WeatherTracker,2013-11-27 00:55:00,
2013-11-26 19:05:00,47.3,46.5,29.74,North,355,0.0,4.0,97,0.00,,,0.01,WeatherTracker,2013-11-27 01:05:00,
2013-11-26 19:10:00,47.4,46.6,29.74,North,355,0.0,4.0,97,0.00,,,0.01,WeatherTracker,2013-11-27 01:10:00,
2013-11-26 19:20:00,47.5,46.7,29.73,NNW,348,0.0,8.0,97,0.00,,,0.01,WeatherTracker,2013-11-27 01:20:00,
2013-11-26 19:25:00,47.6,46.8,29.73,North,350,0.0,3.0,97,0.00,,,0.01,WeatherTracker,2013-11-27 01:25:00,
2013-11-26 19:30:00,47.6,46.8,29.75,North,350,0.0,1.0,97,0.00,,,0.01,WeatherTracker,2013-11-27 01:30:00,
2013-11-26 19:35:00,47.7,46.9,29.75,NW,323,0.0,5.0,97,0.00,,,0.01,WeatherTracker,2013-11-27 01:35:00,
2013-11-26 19:40:00,47.8,47.0,29.77,NW,325,0.0,8.0,97,0.00,,,0.01,WeatherTracker,2013-11-27 01:40:00,
2013-11-26 19:50:00,47.9,47.1,29.72,NE,41,0.0,7.0,97,0.00,,,0.01,WeatherTracker,2013-11-27 01:50:00,
2013-11-26 20:00:00,48.0,47.2,29.75,NNW,327,0.0,7.0,97,0.00,,,0.01,WeatherTracker,2013-11-27 02:00:00,
2013-11-26 20:05:00,48.1,47.3,29.74,North,360,0.0,7.0,97,0.00,,,0.01,WeatherTracker,2013-11-27 02:05:00,
2013-11-26 20:15:00,48.2,47.4,29.74,NNW,342,0.0,6.0,97,0.00,,,0.01,WeatherTracker,2013-11-27 02:15:00,
2013-11-26 20:20:00,48.2,47.4,29.76,NW,319,2.0,6.0,97,0.00,,,0.01,WeatherTracker,2013-11-27 02:20:00,
2013-11-26 20:30:00,48.2,47.4,29.74,NNW,343,0.0,6.0,97,0.00,,,0.01,WeatherTracker,2013-11-27 02:30:00,
2013-11-26 20:40:00,48.2,47.4,29.74,North,10,0.0,7.0,97,0.00,,,0.01,WeatherTracker,2013-11-27 02:40:00,
2013-11-26 20:50:00,48.2,47.4,29.75,NNW,329,4.0,9.0,97,0.00,,,0.01,WeatherTracker,2013-11-27 02:50:00,
2013-11-26 21:00:00,48.3,47.5,29.74,NNW,340,9.0,9.0,97,0.00,,,0.01,WeatherTracker,2013-11-27 03:00:00,
2013-11-26 21:05:00,48.2,47.4,29.74,NNW,333,0.0,9.0,97,0.00,,,0.01,WeatherTracker,2013-11-27 03:05:00,
2013-11-26 21:10:00,48.3,47.5,29.74,NNW,330,0.0,9.0,97,0.00,,,0.01,WeatherTracker,2013-11-27 03:10:00,
2013-11-26 21:20:00,48.2,47.4,29.74,NNW,332,5.0,9.0,97,0.00,,,0.01,WeatherTracker,2013-11-27 03:20:00,
2013-11-26 21:30:00,48.2,47.4,29.74,NNW,333,6.0,8.0,97,0.00,,,0.01,WeatherTracker,2013-11-27 03:30:00,
2013-11-26 21:35:00,48.2,47.4,29.74,NW,326,7.0,8.0,97,0.00,,,0.01,WeatherTracker,2013-11-27 03:35:00,
2013-11-26 21:40:00,48.2,47.4,29.74,NNW,333,0.0,8.0,97,0.00,,,0.01,WeatherTracker,2013-11-27 03:40:00,
2013-11-26 21:45:00,48.1,47.3,29.74,NNW,345,0.0,8.0,97,0.00,,,0.01,WeatherTracker,2013-11-27 03:45:00,
2013-11-26 21:50:00,48.1,47.3,29.74,NNW,339,0.0,6.0,97,0.00,,,0.01,WeatherTracker,2013-11-27 03:50:00,
2013-11-26 21:55:00,48.1,47.3,29.75,NW,323,5.0,6.0,97,0.00,,,0.01,WeatherTracker,2013-11-27 03:55:00,
2013-11-26 22:00:00,48.1,47.3,29.75,NNW,342,5.0,7.0,97,0.00,,,0.01,WeatherTracker,2013-11-27 04:00:00,
2013-11-26 22:10:00,48.1,47.3,29.75,NNW,333,0.0,8.0,97,0.00,,,0.01,WeatherTracker,2013-11-27 04:10:00,
2013-11-26 22:15:00,48.1,47.3,29.75,NW,324,0.0,8.0,97,0.00,,,0.01,WeatherTracker,2013-11-27 04:15:00,
2013-11-26 22:25:00,48.1,47.3,29.75,North,360,3.0,7.0,97,0.00,,,0.01,WeatherTracker,2013-11-27 04:25:00,
2013-11-26 22:30:00,48.0,47.2,29.75,NW,325,0.0,7.0,97,0.00,,,0.01,WeatherTracker,2013-11-27 04:30:00,
2013-11-26 22:40:00,48.0,47.2,29.76,NNE,15,3.0,9.0,97,0.00,,,0.01,WeatherTracker,2013-11-27 04:40:00,
2013-11-26 22:50:00,47.9,47.1,29.76,NNW,338,0.0,8.0,97,0.00,,,0.01,WeatherTracker,2013-11-27 04:50:00,
2013-11-26 23:00:00,47.8,47.0,29.77,North,349,0.0,10.0,97,0.00,,,0.01,WeatherTracker,2013-11-27 05:00:00,
2013-11-26 23:05:00,47.8,47.0,29.76,NW,321,4.0,9.0,97,0.00,,,0.01,WeatherTracker,2013-11-27 05:05:00,
2013-11-26 23:10:00,47.7,46.9,29.77,NW,326,6.0,10.0,97,0.00,,,0.01,WeatherTracker,2013-11-27 05:10:00,
2013-11-26 23:15:00,47.7,46.9,29.77,NNW,342,0.0,10.0,97,0.00,,,0.01,WeatherTracker,2013-11-27 05:15:00,
2013-11-26 23:20:00,47.6,46.8,29.77,NNW,327,8.0,10.0,97,0.00,,,0.01,WeatherTracker,2013-11-27 05:20:00,
2013-11-26 23:25:00,47.5,46.7,29.77,NNW,338,0.0,10.0,97,0.00,,,0.01,WeatherTracker,2013-11-27 05:25:00,
2013-11-26 23:30:00,47.4,46.6,29.77,NW,315,5.0,10.0,97,0.00,,,0.01,WeatherTracker,2013-11-27 05:30:00,
2013-11-26 23:35:00,47.2,46.4,29.77,North,360,5.0,15.0,97,0.00,,,0.01,WeatherTracker,2013-11-27 05:35:00,
2013-11-26 23:40:00,47.0,46.2,29.77,NNW,331,7.0,16.0,97,0.00,,,0.01,WeatherTracker,2013-11-27 05:40:00,
2013-11-26 23:45:00,46.9,46.1,29.78,NNW,342,0.0,16.0,97,0.00,,,0.01,WeatherTracker,2013-11-27 05:45:00,
2013-11-26 23:50:00,46.8,46.0,29.78,NNW,329,1.0,15.0,97,0.00,,,0.01,WeatherTracker,2013-11-27 05:50:00,
2013-11-26 23:55:00,46.7,45.9,29.78,NNW,343,5.0,11.0,97,0.00,,,0.01,WeatherTracker,2013-11-27 05:55:00,